Time,TemperatureF,DewpointF,PressureIn,WindDirection,WindDirectionDegrees,WindSpeedMPH,WindSpeedGustMPH,Humidity,HourlyPrecipIn,Conditions,Clouds,dailyrainin,SoftwareType,DateUTC
2013-05-26 00:08:00,41.2,40.9,29.65,NNE,22,1.7,-999.0,99,-99.99,,,0.00,Acu-Link.com,2013-05-26 04:08:00,
2013-05-26 00:24:00,41.0,40.7,29.65,WNW,292,5.3,-999.0,99,-99.99,,,0.00,Acu-Link.com,2013-05-26 04:24:00,
2013-05-26 00:39:00,41.0,40.7,29.65,West,270,2.7,-999.0,99,-99.99,,,0.00,Acu-Link.com,2013-05-26 04:39:00,
2013-05-26 00:54:00,40.8,40.5,29.65,West,270,3.7,-999.0,99,-99.99,,,0.00,Acu-Link.com,2013-05-26 04:54:00,
2013-05-26 01:09:00,41.2,40.4,29.65,West,270,4.7,-999.0,97,-99.99,,,0.00,Acu-Link.com,2013-05-26 05:09:00,
2013-05-26 01:24:00,41.4,40.3,29.64,NNW,337,3.2,-999.0,96,-99.99,,,0.00,Acu-Link.com,2013-05-26 05:24:00,
2013-05-26 01:39:00,41.4,40.6,29.64,WSW,247,2.7,-999.0,97,-99.99,,,0.00,Acu-Link.com,2013-05-26 05:39:00,
2013-05-26 01:54:00,41.4,40.1,29.64,NW,315,6.8,-999.0,95,-99.99,,,0.00,Acu-Link.com,2013-05-26 05:54:00,
2013-05-26 02:09:00,40.8,39.2,29.64,WNW,292,4.2,-999.0,94,-99.99,,,0.00,Acu-Link.com,2013-05-26 06:09:00,
2013-05-26 02:24:00,40.3,39.5,29.64,West,270,0.0,-999.0,97,-99.99,,,0.00,Acu-Link.com,2013-05-26 06:24:00,
2013-05-26 02:40:00,39.4,39.1,29.64,NNE,22,2.2,-999.0,99,-99.99,,,0.01,Acu-Link.com,2013-05-26 06:40:00,
2013-05-26 02:55:00,39.2,38.9,29.64,West,270,4.7,-999.0,99,-99.99,,,0.02,Acu-Link.com,2013-05-26 06:55:00,
2013-05-26 03:10:00,39.2,38.9,29.64,NNW,337,5.3,-999.0,99,-99.99,,,0.02,Acu-Link.com,2013-05-26 07:10:00,
2013-05-26 03:25:00,39.4,39.1,29.64,SE,135,1.1,-999.0,99,-99.99,,,0.02,Acu-Link.com,2013-05-26 07:25:00,
2013-05-26 03:40:00,39.7,39.4,29.63,WNW,292,5.3,-999.0,99,-99.99,,,0.03,Acu-Link.com,2013-05-26 07:40:00,
2013-05-26 03:55:00,39.9,39.6,29.63,SSW,202,3.2,-999.0,99,-99.99,,,0.03,Acu-Link.com,2013-05-26 07:55:00,
2013-05-26 04:11:00,40.1,39.8,29.64,West,270,3.2,-999.0,99,-99.99,,,0.03,Acu-Link.com,2013-05-26 08:11:00,
2013-05-26 04:26:00,40.1,39.8,29.63,North,0,3.2,-999.0,99,-99.99,,,0.03,Acu-Link.com,2013-05-26 08:26:00,
2013-05-26 04:42:00,40.1,39.8,29.63,West,270,3.2,-999.0,99,-99.99,,,0.03,Acu-Link.com,2013-05-26 08:42:00,
2013-05-26 04:57:00,40.3,40.0,29.64,SW,225,2.7,-999.0,99,-99.99,,,0.03,Acu-Link.com,2013-05-26 08:57:00,
2013-05-26 05:12:00,40.3,40.0,29.64,NW,315,2.7,-999.0,99,-99.99,,,0.03,Acu-Link.com,2013-05-26 09:12:00,
2013-05-26 05:27:00,40.5,40.2,29.65,WNW,292,3.7,-999.0,99,-99.99,,,0.03,Acu-Link.com,2013-05-26 09:27:00,
2013-05-26 05:42:00,40.8,40.5,29.65,WSW,247,4.7,-999.0,99,-99.99,,,0.03,Acu-Link.com,2013-05-26 09:42:00,
2013-05-26 05:57:00,41.4,40.9,29.66,NW,315,1.7,-999.0,98,-99.99,,,0.03,Acu-Link.com,2013-05-26 09:57:00,
2013-05-26 06:12:00,42.1,41.0,29.67,WNW,292,7.8,-999.0,96,-99.99,,,0.03,Acu-Link.com,2013-05-26 10:12:00,
2013-05-26 06:27:00,42.4,41.1,29.67,WSW,247,5.8,-999.0,95,-99.99,,,0.03,Acu-Link.com,2013-05-26 10:27:00,
2013-05-26 06:43:00,42.8,41.2,29.68,SSW,202,13.5,-999.0,94,-99.99,,,0.03,Acu-Link.com,2013-05-26 10:43:00,
2013-05-26 06:58:00,43.0,41.4,29.68,SSW,202,5.3,-999.0,94,-99.99,,,0.03,Acu-Link.com,2013-05-26 10:58:00,
2013-05-26 07:13:00,44.2,42.0,29.68,SW,225,5.3,-999.0,92,-99.99,,,0.03,Acu-Link.com,2013-05-26 11:13:00,
2013-05-26 07:28:00,45.1,42.3,29.69,North,0,4.2,-999.0,90,-99.99,,,0.03,Acu-Link.com,2013-05-26 11:28:00,
2013-05-26 07:43:00,46.0,42.4,29.69,WSW,247,3.2,-999.0,87,-99.99,,,0.03,Acu-Link.com,2013-05-26 11:43:00,
2013-05-26 07:58:00,46.8,42.2,29.69,WSW,247,4.7,-999.0,84,-99.99,,,0.03,Acu-Link.com,2013-05-26 11:58:00,
2013-05-26 08:13:00,48.4,42.8,29.70,NNW,337,5.3,-999.0,81,-99.99,,,0.03,Acu-Link.com,2013-05-26 12:13:00,
2013-05-26 08:28:00,47.7,42.2,29.71,NW,315,9.9,-999.0,81,-99.99,,,0.04,Acu-Link.com,2013-05-26 12:28:00,
2013-05-26 08:43:00,48.2,42.3,29.71,SW,225,6.8,-999.0,80,-99.99,,,0.04,Acu-Link.com,2013-05-26 12:43:00,
2013-05-26 08:59:00,48.6,42.4,29.71,NW,315,4.7,-999.0,79,-99.99,,,0.04,Acu-Link.com,2013-05-26 12:59:00,
2013-05-26 09:14:00,49.3,42.1,29.72,West,270,17.6,-999.0,76,-99.99,,,0.04,Acu-Link.com,2013-05-26 13:14:00,
2013-05-26 09:29:00,50.0,42.7,29.72,West,270,9.4,-999.0,76,-99.99,,,0.04,Acu-Link.com,2013-05-26 13:29:00,
2013-05-26 09:44:00,49.8,41.9,29.72,WNW,292,10.9,-999.0,74,-99.99,,,0.04,Acu-Link.com,2013-05-26 13:44:00,
2013-05-26 09:59:00,51.1,42.8,29.73,WSW,247,10.4,-999.0,73,-99.99,,,0.04,Acu-Link.com,2013-05-26 13:59:00,
2013-05-26 10:16:00,51.8,42.3,29.74,West,270,3.7,-999.0,70,-99.99,,,0.04,Acu-Link.com,2013-05-26 14:16:00,
2013-05-26 10:31:00,52.3,42.4,29.74,WSW,247,8.9,-999.0,69,-99.99,,,0.04,Acu-Link.com,2013-05-26 14:31:00,
2013-05-26 10:46:00,51.3,42.9,29.74,NNW,337,6.8,-999.0,73,-99.99,,,0.04,Acu-Link.com,2013-05-26 14:46:00,
2013-05-26 11:01:00,52.9,44.1,29.75,WSW,247,9.4,-999.0,72,-99.99,,,0.04,Acu-Link.com,2013-05-26 15:01:00,
2013-05-26 11:16:00,53.1,43.6,29.75,WNW,292,11.4,-999.0,70,-99.99,,,0.04,Acu-Link.com,2013-05-26 15:16:00,
2013-05-26 11:32:00,54.0,43.7,29.75,ESE,112,2.2,-999.0,68,-99.99,,,0.04,Acu-Link.com,2013-05-26 15:32:00,
2013-05-26 11:47:00,55.0,43.5,29.76,West,270,7.8,-999.0,65,-99.99,,,0.04,Acu-Link.com,2013-05-26 15:47:00,
2013-05-26 12:02:00,54.7,44.0,29.76,West,270,3.2,-999.0,67,-99.99,,,0.04,Acu-Link.com,2013-05-26 16:02:00,